TimeAST,TemperatureF,Dew PointF,Humidity,Sea Level PressureIn,VisibilityMPH,Wind Direction,Wind SpeedMPH,Gust SpeedMPH,PrecipitationIn,Events,Conditions,WindDirDegrees,DateUTC
12:00 AM,33.8,26.6,75,29.83,15.0,NNE,26.5,34.5,N/A,,Scattered Clouds,20,2012-12-07 04:00:00
1:00 AM,33.8,24.8,70,29.83,15.0,NNE,25.3,39.1,N/A,,Partly Cloudy,20,2012-12-07 05:00:00
2:00 AM,33,25,61,29.90,15,NNE,16.1,,,,Scattered Clouds,20,2012-12-07 06:00:00
2:00 AM,33.8,24.8,70,29.90,15.0,NNE,13.8,27.6,N/A,,Partly Cloudy,20,2012-12-07 06:00:00
3:00 AM,33.8,24.8,70,29.94,15.0,North,10.4,17.3,N/A,,Scattered Clouds,10,2012-12-07 07:00:00
4:00 AM,32.0,24.8,75,29.96,15.0,North,15.0,21.9,N/A,,Scattered Clouds,360,2012-12-07 08:00:00
5:00 AM,32.0,23.0,69,29.98,15.0,North,9.2,18.4,N/A,,Scattered Clouds,360,2012-12-07 09:00:00
6:00 AM,32.0,21.2,64,30.00,15.0,NNE,15.0,23.0,N/A,,Mostly Cloudy,20,2012-12-07 10:00:00
7:00 AM,32.0,21.2,64,30.02,15.0,North,11.5,23.0,N/A,,Mostly Cloudy,360,2012-12-07 11:00:00
8:00 AM,31,20,51,30.03,15,North,16.1,,,,Mostly Cloudy,0,2012-12-07 12:00:00
8:00 AM,30.2,19.4,64,30.03,15.0,North,13.8,23.0,N/A,,Mostly Cloudy,360,2012-12-07 12:00:00
9:00 AM,30.2,19.4,64,30.03,15.0,North,9.2,-,N/A,,Mostly Cloudy,360,2012-12-07 13:00:00
10:00 AM,30.2,19.4,64,30.02,15.0,North,6.9,-,N/A,,Mostly Cloudy,360,2012-12-07 14:00:00
11:00 AM,30.2,19.4,64,30.01,15.0,North,13.8,-,N/A,,Mostly Cloudy,350,2012-12-07 15:00:00
12:00 PM,30.2,19.4,64,30.00,15.0,NNW,10.4,18.4,N/A,,Mostly Cloudy,330,2012-12-07 16:00:00
1:00 PM,30.2,19.4,64,29.99,15.0,North,11.5,-,N/A,,Scattered Clouds,360,2012-12-07 17:00:00
2:00 PM,31,19,49,29.98,15,North,11.5,,,,Partly Cloudy,350,2012-12-07 18:00:00
2:00 PM,30.2,19.4,64,29.98,15.0,NW,15.0,-,N/A,,Scattered Clouds,320,2012-12-07 18:00:00
3:00 PM,28.4,19.4,69,29.99,15.0,NNW,4.6,-,N/A,,Scattered Clouds,340,2012-12-07 19:00:00
4:00 PM,28.4,19.4,69,30.00,15.0,NNW,11.5,-,N/A,,Mostly Cloudy,330,2012-12-07 20:00:00
5:00 PM,28.4,19.4,69,30.00,15.0,NNW,8.1,-,N/A,,Mostly Cloudy,330,2012-12-07 21:00:00
6:00 PM,26.6,19.4,74,29.99,15.0,NW,9.2,-,N/A,,Mostly Cloudy,320,2012-12-07 22:00:00
7:00 PM,26.6,19.4,74,29.99,15.0,NW,8.1,-,N/A,,Mostly Cloudy,320,2012-12-07 23:00:00
8:00 PM,25,18,67,30.00,15,NW,4.6,,,,Mostly Cloudy,310,2012-12-08 00:00:00
8:00 PM,24.8,19.4,80,30.00,15.0,NW,5.8,-,N/A,,Mostly Cloudy,320,2012-12-08 00:00:00
9:00 PM,23.0,17.6,80,29.99,15.0,NW,6.9,-,N/A,,Mostly Cloudy,320,2012-12-08 01:00:00
10:00 PM,21.2,17.6,86,29.99,15.0,NW,6.9,-,N/A,,Mostly Cloudy,320,2012-12-08 02:00:00
11:00 PM,19.4,15.8,86,29.98,15.0,NW,6.9,-,N/A,,Mostly Cloudy,320,2012-12-08 03:00:00